Location: Flensburg
(54.6357°N, 9.5142°E)
Time: 18:53:12
(UTC+02:00)

ISS - Visible Passes

Search period start: 26 March 2017 00:00
Search period end: 05 April 2017 01:00
Orbit: 399 x 409 km, 51.6° (Epoch: 27 March)

Date Brightness Start Highest point End Pass type
(mag) Time Alt. Az. Time Alt. Az. Time Alt. Az.
28 Mar -1.6 21:01:05 10° SSE 21:01:52 11° SSE 21:01:52 11° SSE visible
29 Mar -2.4 21:43:01 10° SSW 21:45:00 23° S 21:45:00 23° S visible
30 Mar -2.2 20:51:11 10° SSW 20:53:34 19° SSE 20:55:12 14° ESE visible
30 Mar -2.0 22:26:24 10° WSW 22:27:53 23° SW 22:27:53 23° SW visible
31 Mar -3.1 21:34:10 10° SW 21:37:12 36° SSE 21:37:53 32° SE visible
31 Mar -1.0 23:10:11 10° W 23:10:33 13° WSW 23:10:33 13° WSW visible
01 Apr -2.7 20:42:02 10° SW 20:44:53 28° SSE 20:47:46 10° E visible
01 Apr -3.2 22:17:50 10° WSW 22:20:25 43° SW 22:20:25 43° SW visible
02 Apr -3.4 21:25:29 10° WSW 21:28:37 45° S 21:30:11 25° ESE visible
02 Apr -1.5 23:01:41 10° W 23:02:49 19° WSW 23:02:49 19° WSW visible
03 Apr -3.1 20:33:11 10° SW 20:36:14 38° SSE 20:39:20 10° E visible
03 Apr -3.5 22:09:15 10° W 22:12:26 48° S 22:12:30 48° S visible
04 Apr -3.5 21:16:51 10° WSW 21:20:01 50° S 21:22:07 19° ESE visible
04 Apr -1.9 22:53:11 10° W 22:54:46 22° WSW 22:54:46 22° WSW visible
